Time,TemperatureF,DewpointF,PressureIn,WindDirection,WindDirectionDegrees,WindSpeedMPH,WindSpeedGustMPH,Humidity,HourlyPrecipIn,Conditions,Clouds,dailyrainin,SoftwareType,DateUTC
2013-01-17 00:00:00,52.1,52.1,29.97,West,278,0.0,0.0,100,0.04,,-RA,0.00,VWS V14.01,2013-01-17 05:00:00,
2013-01-17 00:01:00,52.1,52.1,29.97,West,278,0.0,0.0,100,0.04,,-RA,0.00,VWS V14.01,2013-01-17 05:01:00,
2013-01-17 00:04:00,52.1,52.1,29.97,West,278,0.0,0.0,100,0.04,,-RA,0.00,VWS V14.01,2013-01-17 05:04:00,
2013-01-17 00:05:00,52.1,52.1,29.97,West,278,0.0,0.0,100,0.04,,,0.00,VWS V14.01,2013-01-17 05:05:00,
2013-01-17 00:09:00,51.9,51.9,29.97,West,278,0.0,0.0,100,0.04,,-RA,0.00,VWS V14.01,2013-01-17 05:09:00,
2013-01-17 00:10:00,51.9,51.9,29.97,West,278,0.0,0.0,100,0.04,,,0.00,VWS V14.01,2013-01-17 05:10:00,
2013-01-17 00:14:00,51.7,51.7,29.97,West,278,0.0,0.0,100,0.04,,-RA,0.00,VWS V14.01,2013-01-17 05:14:00,
2013-01-17 00:15:00,51.7,51.7,29.97,West,278,0.0,0.0,100,0.04,,,0.00,VWS V14.01,2013-01-17 05:15:00,
2013-01-17 00:19:00,51.7,51.7,29.97,West,278,0.0,0.0,100,0.04,,-RA,0.00,VWS V14.01,2013-01-17 05:19:00,
2013-01-17 00:20:00,51.7,51.7,29.97,West,278,0.0,0.0,100,0.04,,,0.00,VWS V14.01,2013-01-17 05:20:00,
2013-01-17 00:25:00,51.2,51.2,29.97,West,278,0.0,0.0,100,0.04,,-RA,0.00,VWS V14.01,2013-01-17 05:25:00,
2013-01-17 00:30:00,51.0,51.0,29.97,West,278,0.0,0.0,100,0.08,,-RA,0.04,VWS V14.01,2013-01-17 05:30:00,
2013-01-17 00:35:00,50.8,50.8,29.97,West,278,0.0,0.0,100,0.08,,-RA,0.04,VWS V14.01,2013-01-17 05:35:00,
2013-01-17 00:40:00,50.6,50.6,29.97,West,278,0.0,0.0,100,0.08,,-RA,0.04,VWS V14.01,2013-01-17 05:40:00,
2013-01-17 00:45:00,50.4,50.4,29.97,West,278,0.0,0.0,100,0.08,,-RA,0.04,VWS V14.01,2013-01-17 05:45:00,
2013-01-17 00:50:00,50.4,50.4,29.97,West,278,0.0,0.0,100,0.04,,-RA,0.04,VWS V14.01,2013-01-17 05:50:00,
2013-01-17 00:55:00,50.4,50.4,29.97,West,278,0.0,0.0,100,0.04,,-RA,0.04,VWS V14.01,2013-01-17 05:55:00,
2013-01-17 01:00:00,50.4,50.4,29.97,West,278,0.0,0.0,100,0.04,,-RA,0.04,VWS V14.01,2013-01-17 06:00:00,
2013-01-17 01:05:00,50.4,50.4,29.97,West,278,0.0,0.0,100,0.04,,-RA,0.04,VWS V14.01,2013-01-17 06:05:00,
2013-01-17 01:10:00,50.4,50.4,29.97,West,278,0.0,0.0,100,0.04,,-RA,0.04,VWS V14.01,2013-01-17 06:10:00,
2013-01-17 01:15:00,50.4,50.4,29.97,West,278,0.0,0.0,100,0.04,,-RA,0.04,VWS V14.01,2013-01-17 06:15:00,
2013-01-17 01:20:00,50.3,50.3,29.97,West,278,0.0,0.0,100,0.04,,-RA,0.04,VWS V14.01,2013-01-17 06:20:00,
2013-01-17 01:25:00,50.3,50.3,29.97,West,278,0.0,0.0,100,0.00,,-RA,0.04,VWS V14.01,2013-01-17 06:25:00,
2013-01-17 01:30:00,50.3,50.3,29.97,West,278,0.0,0.0,100,0.00,,-RA,0.04,VWS V14.01,2013-01-17 06:30:00,
2013-01-17 01:35:00,50.3,50.3,29.97,West,278,0.0,0.0,100,0.00,,-RA,0.04,VWS V14.01,2013-01-17 06:35:00,
2013-01-17 01:40:00,50.1,50.1,29.97,West,278,0.0,0.0,100,0.00,,-RA,0.04,VWS V14.01,2013-01-17 06:40:00,
2013-01-17 01:45:00,50.1,50.1,29.97,West,278,0.0,0.0,100,0.00,,-RA,0.04,VWS V14.01,2013-01-17 06:45:00,
2013-01-17 01:50:00,50.1,50.1,29.97,West,278,0.0,0.0,100,0.04,,-RA,0.08,VWS V14.01,2013-01-17 06:50:00,
2013-01-17 01:55:00,49.9,49.9,29.97,West,278,0.0,0.0,100,0.04,,,0.08,VWS V14.01,2013-01-17 06:55:00,
2013-01-17 01:56:00,49.9,49.9,29.97,West,278,0.0,0.0,100,0.04,,-RA,0.08,VWS V14.01,2013-01-17 06:56:00,
2013-01-17 02:00:00,49.9,49.9,29.97,SE,125,0.0,0.0,100,0.04,,,0.08,VWS V14.01,2013-01-17 07:00:00,
2013-01-17 02:01:00,49.9,49.9,29.97,SE,125,0.0,0.0,100,0.04,,-RA,0.08,VWS V14.01,2013-01-17 07:01:00,
2013-01-17 02:05:00,49.7,49.7,29.97,SE,125,0.0,0.0,100,0.04,,,0.08,VWS V14.01,2013-01-17 07:05:00,
2013-01-17 02:06:00,49.7,49.7,29.97,SE,125,0.0,0.0,100,0.04,,-RA,0.08,VWS V14.01,2013-01-17 07:06:00,
2013-01-17 02:10:00,49.9,49.9,29.97,SE,125,0.0,0.0,100,0.04,,,0.08,VWS V14.01,2013-01-17 07:10:00,
2013-01-17 02:11:00,49.9,49.9,29.97,SE,125,0.0,0.0,100,0.04,,-RA,0.08,VWS V14.01,2013-01-17 07:11:00,
2013-01-17 02:15:00,49.9,49.9,29.97,SE,125,0.0,0.0,100,0.04,,,0.08,VWS V14.01,2013-01-17 07:15:00,
2013-01-17 02:16:00,49.7,49.7,29.97,SE,125,0.0,0.0,100,0.04,,-RA,0.08,VWS V14.01,2013-01-17 07:16:00,
2013-01-17 02:20:00,49.7,49.7,29.97,SE,125,0.0,0.0,100,0.04,,,0.08,VWS V14.01,2013-01-17 07:20:00,
2013-01-17 02:21:00,49.7,49.7,29.97,SE,125,0.0,0.0,100,0.04,,-RA,0.08,VWS V14.01,2013-01-17 07:21:00,
2013-01-17 02:25:00,49.7,49.7,29.97,SE,125,0.0,0.0,100,0.12,,,0.16,VWS V14.01,2013-01-17 07:25:00,
2013-01-17 02:26:00,49.7,49.7,29.97,SE,125,0.0,0.0,100,0.12,,-RA,0.16,VWS V14.01,2013-01-17 07:26:00,
2013-01-17 02:30:00,49.7,49.7,29.97,SE,125,0.0,0.0,100,0.12,,,0.16,VWS V14.01,2013-01-17 07:30:00,
2013-01-17 02:31:00,49.7,49.7,29.97,SE,125,0.0,0.0,100,0.12,,-RA,0.16,VWS V14.01,2013-01-17 07:31:00,
2013-01-17 02:35:00,49.7,49.7,29.97,SE,125,0.0,0.0,100,0.12,,,0.16,VWS V14.01,2013-01-17 07:35:00,
2013-01-17 02:36:00,49.7,49.7,29.97,SE,125,0.0,0.0,100,0.12,,-RA,0.16,VWS V14.01,2013-01-17 07:36:00,
2013-01-17 02:40:00,49.7,49.7,29.97,SE,125,0.0,0.0,100,0.12,,,0.16,VWS V14.01,2013-01-17 07:40:00,
2013-01-17 02:41:00,49.7,49.7,29.97,SE,125,0.0,0.0,100,0.12,,-RA,0.16,VWS V14.01,2013-01-17 07:41:00,
2013-01-17 02:45:00,49.7,49.7,29.97,SE,125,0.0,0.0,100,0.12,,,0.16,VWS V14.01,2013-01-17 07:45:00,
2013-01-17 02:46:00,49.7,49.7,29.97,SE,125,0.0,0.0,100,0.12,,-RA,0.16,VWS V14.01,2013-01-17 07:46:00,
2013-01-17 02:50:00,49.7,49.7,29.97,SE,125,0.0,0.0,100,0.12,,,0.16,VWS V14.01,2013-01-17 07:50:00,
2013-01-17 02:51:00,49.7,49.7,29.97,SE,125,0.0,0.0,100,0.08,,-RA,0.16,VWS V14.01,2013-01-17 07:51:00,
2013-01-17 02:55:00,49.7,49.7,29.97,SE,125,0.0,0.0,100,0.08,,,0.16,VWS V14.01,2013-01-17 07:55:00,
2013-01-17 02:56:00,49.7,49.7,29.97,SE,125,0.0,0.0,100,0.08,,-RA,0.16,VWS V14.01,2013-01-17 07:56:00,
2013-01-17 03:00:00,49.7,49.7,29.97,SE,125,0.0,0.0,100,0.08,,,0.16,VWS V14.01,2013-01-17 08:00:00,
2013-01-17 03:01:00,49.7,49.7,29.97,SE,125,0.0,0.0,100,0.08,,-RA,0.16,VWS V14.01,2013-01-17 08:01:00,
2013-01-17 03:05:00,49.7,49.7,29.97,SE,125,0.0,0.0,100,0.08,,,0.16,VWS V14.01,2013-01-17 08:05:00,
2013-01-17 03:06:00,49.7,49.7,29.97,SE,125,0.0,0.0,100,0.08,,-RA,0.16,VWS V14.01,2013-01-17 08:06:00,
2013-01-17 03:10:00,49.7,49.7,29.97,SE,125,0.0,0.0,100,0.08,,,0.16,VWS V14.01,2013-01-17 08:10:00,
2013-01-17 03:12:00,49.7,49.7,29.97,SE,125,0.0,0.0,100,0.12,,-RA,0.20,VWS V14.01,2013-01-17 08:12:00,
2013-01-17 03:15:00,49.7,49.7,29.97,SE,125,0.0,0.0,100,0.12,,,0.20,VWS V14.01,2013-01-17 08:15:00,
2013-01-17 03:17:00,49.7,49.7,29.97,SE,125,0.0,0.0,100,0.12,,-RA,0.20,VWS V14.01,2013-01-17 08:17:00,
2013-01-17 03:20:00,49.9,49.9,29.97,SE,125,0.0,0.0,100,0.12,,,0.20,VWS V14.01,2013-01-17 08:20:00,
2013-01-17 03:22:00,49.9,49.9,29.97,SE,124,0.0,0.0,100,0.12,,-RA,0.20,VWS V14.01,2013-01-17 08:22:00,
2013-01-17 03:25:00,50.1,50.1,29.97,SE,125,0.0,0.0,100,0.12,,,0.20,VWS V14.01,2013-01-17 08:25:00,
2013-01-17 03:27:00,50.1,50.1,29.94,SE,125,0.0,0.0,100,0.04,,-RA,0.20,VWS V14.01,2013-01-17 08:27:00,
2013-01-17 03:30:00,50.1,50.1,29.94,SE,125,0.0,0.0,100,0.04,,,0.20,VWS V14.01,2013-01-17 08:30:00,
2013-01-17 03:32:00,49.9,49.9,29.94,SE,125,0.0,0.0,100,0.04,,-RA,0.20,VWS V14.01,2013-01-17 08:32:00,
2013-01-17 03:35:00,49.9,49.9,29.94,SE,125,0.0,0.0,100,0.04,,,0.20,VWS V14.01,2013-01-17 08:35:00,
2013-01-17 03:37:00,49.9,49.9,29.94,SE,125,0.0,0.0,100,0.04,,-RA,0.20,VWS V14.01,2013-01-17 08:37:00,
2013-01-17 03:40:00,49.9,49.9,29.94,SE,125,0.0,0.0,100,0.04,,,0.20,VWS V14.01,2013-01-17 08:40:00,
2013-01-17 03:42:00,49.9,49.9,29.94,SE,125,0.0,0.0,100,0.04,,-RA,0.20,VWS V14.01,2013-01-17 08:42:00,
2013-01-17 03:45:00,49.9,49.9,29.94,SE,125,0.0,0.0,100,0.04,,,0.20,VWS V14.01,2013-01-17 08:45:00,
2013-01-17 03:47:00,49.9,49.9,29.94,SE,125,0.0,0.0,100,0.04,,-RA,0.20,VWS V14.01,2013-01-17 08:47:00,
2013-01-17 03:50:00,49.9,49.9,29.94,SE,125,0.0,0.0,100,0.04,,,0.20,VWS V14.01,2013-01-17 08:50:00,
2013-01-17 03:52:00,49.9,49.9,29.94,SE,125,0.0,0.0,100,0.04,,-RA,0.20,VWS V14.01,2013-01-17 08:52:00,
2013-01-17 03:55:00,49.9,49.9,29.94,SE,125,0.0,0.0,100,0.04,,,0.20,VWS V14.01,2013-01-17 08:55:00,
2013-01-17 03:57:00,49.9,49.9,29.94,SE,125,0.0,0.0,100,0.04,,-RA,0.20,VWS V14.01,2013-01-17 08:57:00,
2013-01-17 04:00:00,49.9,49.9,29.94,SE,125,0.0,0.0,100,0.04,,,0.20,VWS V14.01,2013-01-17 09:00:00,
2013-01-17 04:02:00,50.1,50.1,29.94,SE,125,0.0,0.0,100,0.04,,-RA,0.20,VWS V14.01,2013-01-17 09:02:00,
2013-01-17 04:05:00,50.1,50.1,29.94,SE,125,0.0,0.0,100,0.04,,,0.20,VWS V14.01,2013-01-17 09:05:00,
2013-01-17 04:07:00,50.1,50.1,29.94,SE,125,0.0,0.0,100,0.04,,-RA,0.20,VWS V14.01,2013-01-17 09:07:00,
2013-01-17 04:10:00,50.1,50.1,29.94,SE,125,0.0,0.0,100,0.04,,,0.20,VWS V14.01,2013-01-17 09:10:00,
2013-01-17 04:12:00,50.1,50.1,29.94,SE,125,0.0,0.0,100,0.04,,-RA,0.20,VWS V14.01,2013-01-17 09:12:00,
2013-01-17 04:15:00,50.1,50.1,29.94,SE,125,0.0,0.0,100,0.04,,,0.20,VWS V14.01,2013-01-17 09:15:00,
2013-01-17 04:17:00,50.1,50.1,29.94,SE,125,0.0,0.0,100,0.00,,-RA,0.20,VWS V14.01,2013-01-17 09:17:00,
2013-01-17 04:20:00,50.1,50.1,29.94,SE,125,0.0,0.0,100,0.04,,,0.24,VWS V14.01,2013-01-17 09:20:00,
2013-01-17 04:22:00,50.1,50.1,29.94,SE,125,0.0,0.0,100,0.04,,-RA,0.24,VWS V14.01,2013-01-17 09:22:00,
2013-01-17 04:25:00,50.1,50.1,29.94,SE,125,0.0,0.0,100,0.04,,,0.24,VWS V14.01,2013-01-17 09:25:00,
2013-01-17 04:27:00,50.1,50.1,29.94,SE,125,0.0,0.0,100,0.04,,-RA,0.24,VWS V14.01,2013-01-17 09:27:00,
2013-01-17 04:30:00,50.1,50.1,29.94,SE,125,0.0,0.0,100,0.04,,,0.24,VWS V14.01,2013-01-17 09:30:00,
2013-01-17 04:32:00,50.1,50.1,29.94,SE,125,0.0,0.0,100,0.04,,-RA,0.24,VWS V14.01,2013-01-17 09:32:00,
2013-01-17 04:35:00,50.1,50.1,29.94,SE,125,0.0,0.0,100,0.04,,,0.24,VWS V14.01,2013-01-17 09:35:00,
2013-01-17 04:38:00,50.3,50.3,29.94,SE,125,0.0,0.0,100,0.04,,-RA,0.24,VWS V14.01,2013-01-17 09:38:00,
2013-01-17 04:40:00,50.3,50.3,29.94,NE,56,0.0,8.5,100,0.04,,,0.24,VWS V14.01,2013-01-17 09:40:00,
2013-01-17 04:43:00,50.3,50.3,29.94,NE,56,0.0,0.0,100,0.08,,-RA,0.28,VWS V14.01,2013-01-17 09:43:00,
2013-01-17 04:45:00,50.3,50.3,29.94,East,96,0.0,0.0,100,0.08,,,0.28,VWS V14.01,2013-01-17 09:45:00,
2013-01-17 04:48:00,50.4,50.4,29.94,East,84,0.0,0.0,100,0.08,,RA,0.28,VWS V14.01,2013-01-17 09:48:00,
2013-01-17 04:50:00,50.3,50.3,29.94,ESE,109,0.0,0.0,100,0.08,,,0.28,VWS V14.01,2013-01-17 09:50:00,
2013-01-17 04:53:00,50.3,50.3,29.94,NNE,32,0.0,0.0,100,0.08,,RA,0.28,VWS V14.01,2013-01-17 09:53:00,
2013-01-17 04:55:00,50.1,50.1,29.94,NNE,32,0.0,0.0,100,0.08,,,0.28,VWS V14.01,2013-01-17 09:55:00,
2013-01-17 04:58:00,50.1,50.1,29.97,NNE,32,0.0,0.0,100,0.08,,RA,0.28,VWS V14.01,2013-01-17 09:58:00,
2013-01-17 05:00:00,50.1,50.1,29.97,NNE,32,0.0,0.0,100,0.08,,,0.28,VWS V14.01,2013-01-17 10:00:00,
2013-01-17 05:03:00,49.9,49.9,29.97,NNE,32,0.0,0.0,100,0.08,,-RA,0.28,VWS V14.01,2013-01-17 10:03:00,
2013-01-17 05:05:00,49.9,49.9,29.97,NNE,32,0.0,0.0,100,0.08,,,0.28,VWS V14.01,2013-01-17 10:05:00,
2013-01-17 05:08:00,49.9,49.9,29.97,NNE,32,0.0,0.0,100,0.08,,-RA,0.28,VWS V14.01,2013-01-17 10:08:00,
2013-01-17 05:10:00,49.9,49.9,29.97,NNE,32,0.0,0.0,100,0.08,,,0.28,VWS V14.01,2013-01-17 10:10:00,
2013-01-17 05:13:00,49.9,49.9,29.97,NNE,32,0.0,0.0,100,0.16,,-RA,0.35,VWS V14.01,2013-01-17 10:13:00,
2013-01-17 05:15:00,49.9,49.9,29.97,NNE,32,0.0,0.0,100,0.16,,,0.35,VWS V14.01,2013-01-17 10:15:00,
2013-01-17 05:18:00,49.9,49.9,29.97,NNE,32,0.0,0.0,100,0.16,,-RA,0.35,VWS V14.01,2013-01-17 10:18:00,
2013-01-17 05:20:00,49.9,49.9,29.97,NNE,32,0.0,0.0,100,0.16,,,0.35,VWS V14.01,2013-01-17 10:20:00,
2013-01-17 05:23:00,49.9,49.9,29.97,NNE,33,0.0,0.0,100,0.12,,-RA,0.35,VWS V14.01,2013-01-17 10:23:00,
2013-01-17 05:25:00,49.9,49.9,29.97,NNE,33,0.0,0.0,100,0.12,,,0.35,VWS V14.01,2013-01-17 10:25:00,
2013-01-17 05:28:00,49.7,49.7,29.97,NNE,33,0.0,0.0,100,0.12,,-RA,0.35,VWS V14.01,2013-01-17 10:28:00,
2013-01-17 05:30:00,49.7,49.7,29.97,NNE,33,0.0,0.0,100,0.12,,,0.35,VWS V14.01,2013-01-17 10:30:00,
2013-01-17 05:33:00,49.7,49.7,29.97,NNE,33,0.0,0.0,100,0.16,,-RA,0.39,VWS V14.01,2013-01-17 10:33:00,
2013-01-17 05:35:00,49.7,49.7,29.97,NNE,33,0.0,0.0,100,0.16,,,0.39,VWS V14.01,2013-01-17 10:35:00,
2013-01-17 05:38:00,49.7,49.7,29.97,NNE,33,0.0,0.0,100,0.16,,-RA,0.39,VWS V14.01,2013-01-17 10:38:00,
2013-01-17 05:40:00,49.7,49.7,29.97,NNE,33,0.0,0.0,100,0.16,,,0.39,VWS V14.01,2013-01-17 10:40:00,
2013-01-17 05:43:00,49.7,49.7,29.97,NNE,22,0.0,0.0,100,0.16,,-RA,0.39,VWS V14.01,2013-01-17 10:43:00,
2013-01-17 05:45:00,49.7,49.7,29.97,NNE,22,0.0,0.0,100,0.16,,,0.39,VWS V14.01,2013-01-17 10:45:00,
2013-01-17 05:48:00,49.7,49.7,29.97,NNE,22,0.0,0.0,100,0.12,,-RA,0.39,VWS V14.01,2013-01-17 10:48:00,
2013-01-17 05:50:00,49.7,49.7,29.97,NNE,22,0.0,0.0,100,0.12,,,0.39,VWS V14.01,2013-01-17 10:50:00,
2013-01-17 05:53:00,49.7,49.7,29.97,NNE,22,0.0,0.0,100,0.12,,-RA,0.39,VWS V14.01,2013-01-17 10:53:00,
2013-01-17 05:55:00,49.7,49.7,29.97,NNE,22,0.0,0.0,100,0.12,,,0.39,VWS V14.01,2013-01-17 10:55:00,
2013-01-17 05:58:00,49.5,49.5,29.97,NNE,22,0.0,0.0,100,0.12,,-RA,0.39,VWS V14.01,2013-01-17 10:58:00,
2013-01-17 06:00:00,49.5,49.5,29.97,NNE,22,0.0,0.0,100,0.12,,,0.39,VWS V14.01,2013-01-17 11:00:00,
2013-01-17 06:03:00,49.7,49.7,29.97,NNE,19,0.0,0.0,100,0.12,,-RA,0.39,VWS V14.01,2013-01-17 11:03:00,
2013-01-17 06:05:00,49.7,49.7,29.97,NNE,12,0.0,0.0,100,0.12,,,0.39,VWS V14.01,2013-01-17 11:05:00,
2013-01-17 06:08:00,49.7,49.7,29.97,NNE,12,0.0,0.0,100,0.12,,-RA,0.39,VWS V14.01,2013-01-17 11:08:00,
2013-01-17 06:10:00,49.7,49.7,29.97,NNE,12,0.0,0.0,100,0.12,,,0.39,VWS V14.01,2013-01-17 11:10:00,
2013-01-17 06:14:00,49.7,49.7,29.97,NNE,12,0.0,0.0,100,0.12,,-RA,0.39,VWS V14.01,2013-01-17 11:14:00,
2013-01-17 06:15:00,49.7,49.7,29.97,NNE,12,0.0,0.0,100,0.12,,,0.39,VWS V14.01,2013-01-17 11:15:00,
2013-01-17 06:19:00,49.7,49.7,29.97,NNE,23,0.0,0.0,100,0.04,,-RA,0.39,VWS V14.01,2013-01-17 11:19:00,
2013-01-17 06:20:00,49.7,49.7,29.97,NNE,23,0.0,0.0,100,0.04,,,0.39,VWS V14.01,2013-01-17 11:20:00,
2013-01-17 06:24:00,49.5,49.5,29.97,NNE,22,0.0,0.0,100,0.04,,-RA,0.39,VWS V14.01,2013-01-17 11:24:00,
2013-01-17 06:25:00,49.5,49.5,29.97,NNE,22,0.0,0.0,100,0.04,,,0.39,VWS V14.01,2013-01-17 11:25:00,
2013-01-17 06:29:00,49.5,49.5,29.97,NW,322,0.0,0.0,100,0.04,,-RA,0.39,VWS V14.01,2013-01-17 11:29:00,
2013-01-17 06:30:00,49.5,49.5,29.97,NW,322,0.0,0.0,100,0.04,,,0.39,VWS V14.01,2013-01-17 11:30:00,
2013-01-17 06:34:00,49.5,49.5,29.97,NNE,22,0.0,0.0,100,0.04,,-RA,0.39,VWS V14.01,2013-01-17 11:34:00,
2013-01-17 06:35:00,49.5,49.5,29.97,NNE,22,0.0,0.0,100,0.04,,,0.39,VWS V14.01,2013-01-17 11:35:00,
2013-01-17 06:39:00,49.5,49.5,29.97,North,0,0.0,0.0,100,0.00,,-RA,0.39,VWS V14.01,2013-01-17 11:39:00,
2013-01-17 06:40:00,49.5,49.5,29.97,North,0,0.0,0.0,100,0.00,,,0.39,VWS V14.01,2013-01-17 11:40:00,
2013-01-17 06:44:00,49.5,49.5,29.97,North,357,0.0,0.0,100,0.00,,-RA,0.39,VWS V14.01,2013-01-17 11:44:00,
2013-01-17 06:45:00,49.5,49.5,29.97,North,357,0.0,0.0,100,0.00,,,0.39,VWS V14.01,2013-01-17 11:45:00,
2013-01-17 06:49:00,49.5,49.5,29.97,North,0,0.0,0.0,100,0.00,,-RA,0.39,VWS V14.01,2013-01-17 11:49:00,
2013-01-17 06:50:00,49.5,49.5,29.97,North,0,0.0,0.0,100,0.00,,,0.39,VWS V14.01,2013-01-17 11:50:00,
2013-01-17 06:54:00,49.5,49.5,29.97,North,0,0.0,0.0,100,0.00,,-RA,0.39,VWS V14.01,2013-01-17 11:54:00,
2013-01-17 06:55:00,49.5,49.5,29.97,North,0,0.0,0.0,100,0.00,,,0.39,VWS V14.01,2013-01-17 11:55:00,
2013-01-17 06:59:00,49.5,49.5,29.97,North,0,0.0,0.0,100,0.00,,-RA,0.39,VWS V14.01,2013-01-17 11:59:00,
2013-01-17 07:00:00,49.5,49.5,29.97,North,0,0.0,0.0,100,0.00,,,0.39,VWS V14.01,2013-01-17 12:00:00,
2013-01-17 07:04:00,49.5,49.5,29.97,North,0,0.0,0.0,100,0.00,,-RA,0.39,VWS V14.01,2013-01-17 12:04:00,
2013-01-17 07:05:00,49.5,49.5,29.97,North,0,0.0,0.0,100,0.00,,,0.39,VWS V14.01,2013-01-17 12:05:00,
2013-01-17 07:09:00,49.5,49.5,29.97,North,0,0.0,0.0,100,0.00,,-RA,0.39,VWS V14.01,2013-01-17 12:09:00,
2013-01-17 07:10:00,49.5,49.5,29.97,North,0,0.0,0.0,100,0.00,,,0.39,VWS V14.01,2013-01-17 12:10:00,
2013-01-17 07:15:00,49.5,49.5,29.97,North,0,0.0,0.0,100,0.00,,-RA,0.39,VWS V14.01,2013-01-17 12:15:00,
2013-01-17 07:20:00,49.5,49.5,29.97,North,0,0.0,0.0,100,0.00,,-RA,0.39,VWS V14.01,2013-01-17 12:20:00,
2013-01-17 07:25:00,49.5,49.5,29.97,North,0,0.0,0.0,100,0.00,,-RA,0.39,VWS V14.01,2013-01-17 12:25:00,
2013-01-17 07:30:00,49.5,49.5,29.97,North,0,0.0,0.0,100,0.00,,-RA,0.39,VWS V14.01,2013-01-17 12:30:00,
2013-01-17 07:35:00,49.5,49.5,29.97,North,0,0.0,0.0,100,0.00,,-RA,0.39,VWS V14.01,2013-01-17 12:35:00,
2013-01-17 07:40:00,49.5,49.5,30.00,North,0,0.0,0.0,100,0.00,,-RA,0.39,VWS V14.01,2013-01-17 12:40:00,
2013-01-17 07:45:00,49.5,49.5,30.00,North,0,0.0,0.0,100,0.00,,-RA,0.39,VWS V14.01,2013-01-17 12:45:00,
2013-01-17 07:50:00,49.5,49.5,30.00,North,0,0.0,0.0,100,0.00,,-RA,0.39,VWS V14.01,2013-01-17 12:50:00,
2013-01-17 07:55:00,49.5,49.5,30.00,North,0,0.0,0.0,100,0.04,,-RA,0.43,VWS V14.01,2013-01-17 12:55:00,
2013-01-17 08:00:00,49.5,49.5,30.00,North,0,0.0,0.0,100,0.04,,-RA,0.43,VWS V14.01,2013-01-17 13:00:00,
2013-01-17 08:05:00,49.5,49.5,30.00,North,0,0.0,0.0,100,0.04,,-RA,0.43,VWS V14.01,2013-01-17 13:05:00,
2013-01-17 08:10:00,49.5,49.5,30.00,North,0,0.0,0.0,100,0.04,,-RA,0.43,VWS V14.01,2013-01-17 13:10:00,
2013-01-17 08:15:00,49.5,49.5,30.00,North,0,0.0,0.0,100,0.04,,-RA,0.43,VWS V14.01,2013-01-17 13:15:00,
2013-01-17 08:20:00,49.5,49.5,30.00,North,5,0.0,0.0,100,0.04,,-RA,0.43,VWS V14.01,2013-01-17 13:20:00,
2013-01-17 08:25:00,49.5,49.5,30.00,North,5,0.0,0.0,100,0.04,,-RA,0.43,VWS V14.01,2013-01-17 13:25:00,
2013-01-17 08:30:00,49.5,49.5,30.00,North,5,0.0,0.0,100,0.04,,-RA,0.43,VWS V14.01,2013-01-17 13:30:00,
2013-01-17 08:35:00,49.5,49.5,30.00,North,5,0.0,0.0,100,0.04,,-RA,0.43,VWS V14.01,2013-01-17 13:35:00,
2013-01-17 08:40:00,49.5,49.5,30.00,North,5,0.0,0.0,100,0.08,,-RA,0.47,VWS V14.01,2013-01-17 13:40:00,
2013-01-17 08:45:00,49.5,49.5,30.00,North,5,0.0,0.0,100,0.08,,-RA,0.47,VWS V14.01,2013-01-17 13:45:00,
2013-01-17 08:50:00,49.5,49.5,30.00,North,5,0.0,0.0,100,0.08,,-RA,0.47,VWS V14.01,2013-01-17 13:50:00,
2013-01-17 08:55:00,49.5,49.5,30.00,North,5,0.0,0.0,100,0.04,,-RA,0.47,VWS V14.01,2013-01-17 13:55:00,
2013-01-17 09:00:00,49.5,49.5,30.00,NNW,342,0.0,0.0,100,0.04,,-RA,0.47,VWS V14.01,2013-01-17 14:00:00,
2013-01-17 09:05:00,49.5,49.5,30.00,NNE,31,0.0,0.0,100,0.04,,-RA,0.47,VWS V14.01,2013-01-17 14:05:00,
2013-01-17 09:10:00,49.5,49.5,30.03,NNE,31,0.0,0.0,100,0.08,,,0.51,VWS V14.01,2013-01-17 14:10:00,
2013-01-17 09:11:00,49.5,49.5,30.03,NNE,31,0.0,0.0,100,0.08,,-RA,0.51,VWS V14.01,2013-01-17 14:11:00,
2013-01-17 09:15:00,49.5,49.5,30.03,NNE,12,0.0,0.0,100,0.08,,,0.51,VWS V14.01,2013-01-17 14:15:00,
2013-01-17 09:16:00,49.7,49.7,30.03,NNE,19,9.4,9.9,100,0.08,,-RA,0.51,VWS V14.01,2013-01-17 14:16:00,
2013-01-17 09:20:00,49.7,49.7,30.03,NNE,19,0.0,9.9,100,0.08,,,0.51,VWS V14.01,2013-01-17 14:20:00,
2013-01-17 09:21:00,49.7,49.7,30.03,NNE,19,0.0,0.0,100,0.08,,-RA,0.51,VWS V14.01,2013-01-17 14:21:00,
2013-01-17 09:25:00,49.7,49.7,30.03,NNE,20,0.0,0.0,100,0.08,,,0.51,VWS V14.01,2013-01-17 14:25:00,
2013-01-17 09:26:00,49.7,49.7,30.03,NNE,20,0.0,0.0,100,0.08,,-RA,0.51,VWS V14.01,2013-01-17 14:26:00,
2013-01-17 09:30:00,49.7,49.7,30.03,NNE,19,0.0,8.5,100,0.08,,,0.51,VWS V14.01,2013-01-17 14:30:00,
2013-01-17 09:31:00,49.7,49.7,30.03,NNE,19,0.0,0.0,100,0.08,,-RA,0.51,VWS V14.01,2013-01-17 14:31:00,
2013-01-17 09:35:00,49.7,49.7,30.03,NNE,19,0.0,0.0,100,0.08,,,0.51,VWS V14.01,2013-01-17 14:35:00,
2013-01-17 09:36:00,49.7,49.7,30.03,NNE,19,0.0,0.0,100,0.08,,-RA,0.51,VWS V14.01,2013-01-17 14:36:00,
2013-01-17 09:40:00,49.7,49.7,30.03,NNE,19,0.0,0.0,100,0.08,,,0.51,VWS V14.01,2013-01-17 14:40:00,
2013-01-17 09:41:00,49.7,49.7,30.03,NNE,19,0.0,0.0,100,0.04,,-RA,0.51,VWS V14.01,2013-01-17 14:41:00,
2013-01-17 09:45:00,49.7,49.7,30.03,NNE,25,0.0,0.0,100,0.04,,,0.51,VWS V14.01,2013-01-17 14:45:00,
2013-01-17 09:46:00,49.7,49.7,30.03,NNE,25,0.0,0.0,100,0.04,,-RA,0.51,VWS V14.01,2013-01-17 14:46:00,
2013-01-17 09:50:00,49.7,49.7,30.03,NNW,348,0.0,0.0,100,0.04,,,0.51,VWS V14.01,2013-01-17 14:50:00,
2013-01-17 09:52:00,49.7,49.7,30.03,North,353,0.0,0.0,100,0.04,,-RA,0.51,VWS V14.01,2013-01-17 14:52:00,
2013-01-17 09:55:00,49.7,49.7,30.03,North,353,0.0,0.0,100,0.04,,,0.51,VWS V14.01,2013-01-17 14:55:00,
2013-01-17 09:57:00,49.7,49.7,30.00,North,353,0.0,0.0,100,0.04,,-RA,0.51,VWS V14.01,2013-01-17 14:57:00,
2013-01-17 10:00:00,49.7,49.7,30.00,North,0,0.0,0.0,100,0.04,,,0.51,VWS V14.01,2013-01-17 15:00:00,
2013-01-17 10:02:00,49.7,49.7,30.00,North,357,0.0,0.0,100,0.04,,-RA,0.51,VWS V14.01,2013-01-17 15:02:00,
2013-01-17 10:05:00,49.7,49.7,30.00,North,0,0.0,0.0,100,0.04,,,0.51,VWS V14.01,2013-01-17 15:05:00,
2013-01-17 10:07:00,49.7,49.7,30.00,North,0,0.0,0.0,100,0.04,,-RA,0.51,VWS V14.01,2013-01-17 15:07:00,
2013-01-17 10:10:00,49.7,49.7,30.03,NNW,340,0.0,0.0,100,0.04,,,0.51,VWS V14.01,2013-01-17 15:10:00,
2013-01-17 10:12:00,49.7,49.7,30.03,NNW,340,0.0,0.0,100,0.00,,-RA,0.51,VWS V14.01,2013-01-17 15:12:00,
2013-01-17 10:15:00,49.7,49.7,30.03,NNW,340,0.0,0.0,100,0.04,,,0.55,VWS V14.01,2013-01-17 15:15:00,
2013-01-17 10:17:00,49.7,49.7,30.03,NNW,340,0.0,0.0,100,0.04,,-RA,0.55,VWS V14.01,2013-01-17 15:17:00,
2013-01-17 10:20:00,49.7,49.7,30.03,SW,218,0.0,0.0,100,0.04,,,0.55,VWS V14.01,2013-01-17 15:20:00,
2013-01-17 10:22:00,49.7,49.7,30.03,SE,145,0.0,0.0,100,0.04,,-RA,0.55,VWS V14.01,2013-01-17 15:22:00,
2013-01-17 10:25:00,49.5,49.5,30.03,ESE,118,0.0,0.0,100,0.04,,,0.55,VWS V14.01,2013-01-17 15:25:00,
2013-01-17 10:27:00,49.5,49.5,30.03,NE,49,0.0,0.0,100,0.04,,-RA,0.55,VWS V14.01,2013-01-17 15:27:00,
2013-01-17 10:30:00,49.5,49.5,30.03,NE,49,0.0,0.0,100,0.04,,,0.55,VWS V14.01,2013-01-17 15:30:00,
2013-01-17 10:32:00,49.5,49.5,30.03,NNE,18,0.0,0.0,100,0.04,,-RA,0.55,VWS V14.01,2013-01-17 15:32:00,
2013-01-17 10:35:00,49.5,49.5,30.03,NE,34,0.0,0.0,100,0.04,,,0.55,VWS V14.01,2013-01-17 15:35:00,
2013-01-17 10:37:00,49.5,49.5,30.03,NE,52,0.0,0.0,100,0.04,,-RA,0.55,VWS V14.01,2013-01-17 15:37:00,
2013-01-17 10:40:00,49.5,49.5,30.03,ENE,58,0.0,0.0,100,0.04,,,0.55,VWS V14.01,2013-01-17 15:40:00,
2013-01-17 10:43:00,49.5,49.5,30.03,ENE,58,0.0,0.0,100,0.04,,-RA,0.55,VWS V14.01,2013-01-17 15:43:00,
2013-01-17 10:45:00,49.5,49.5,30.03,North,353,0.0,0.0,100,0.04,,,0.55,VWS V14.01,2013-01-17 15:45:00,
2013-01-17 10:48:00,49.5,49.5,30.03,NE,50,0.0,0.0,100,0.04,,-RA,0.55,VWS V14.01,2013-01-17 15:48:00,
2013-01-17 10:50:00,49.5,49.5,30.03,East,82,0.0,0.0,100,0.04,,,0.55,VWS V14.01,2013-01-17 15:50:00,
2013-01-17 10:53:00,49.5,49.5,30.03,NNE,29,0.0,8.5,100,0.04,,-RA,0.55,VWS V14.01,2013-01-17 15:53:00,
2013-01-17 10:55:00,49.5,49.5,30.03,NNE,29,0.0,8.5,100,0.04,,,0.55,VWS V14.01,2013-01-17 15:55:00,
2013-01-17 10:58:00,49.5,49.5,30.03,NNE,14,0.0,0.0,100,0.04,,-RA,0.55,VWS V14.01,2013-01-17 15:58:00,
2013-01-17 11:00:00,49.5,49.5,30.00,NNE,19,0.0,0.0,100,0.04,,,0.55,VWS V14.01,2013-01-17 16:00:00,
2013-01-17 11:03:00,49.5,49.5,30.00,NNE,22,0.0,0.0,100,0.04,,-RA,0.55,VWS V14.01,2013-01-17 16:03:00,
2013-01-17 11:05:00,49.5,49.5,30.00,NNE,21,0.0,0.0,100,0.04,,,0.55,VWS V14.01,2013-01-17 16:05:00,
2013-01-17 11:08:00,49.5,49.5,30.00,NNE,15,10.7,11.3,100,0.04,,-RA,0.55,VWS V14.01,2013-01-17 16:08:00,
2013-01-17 11:10:00,49.5,49.5,30.00,NNE,15,10.7,11.3,100,0.04,,,0.55,VWS V14.01,2013-01-17 16:10:00,
2013-01-17 11:13:00,49.5,49.5,30.00,NNE,12,0.0,11.3,100,0.04,,-RA,0.55,VWS V14.01,2013-01-17 16:13:00,
2013-01-17 11:15:00,49.5,49.5,30.00,NE,45,0.0,11.3,100,0.04,,,0.55,VWS V14.01,2013-01-17 16:15:00,
2013-01-17 11:18:00,49.5,49.5,29.97,NE,40,0.0,0.0,100,0.00,,-RA,0.55,VWS V14.01,2013-01-17 16:18:00,
2013-01-17 11:20:00,49.5,49.5,29.97,North,8,0.0,0.0,100,0.00,,,0.55,VWS V14.01,2013-01-17 16:20:00,
2013-01-17 11:23:00,49.4,49.4,29.97,NNE,23,0.0,9.9,100,0.00,,-RA,0.55,VWS V14.01,2013-01-17 16:23:00,
2013-01-17 11:25:00,49.4,49.4,29.97,NNE,23,0.0,9.9,100,0.00,,,0.55,VWS V14.01,2013-01-17 16:25:00,
2013-01-17 11:28:00,49.4,49.4,29.97,NE,49,0.0,0.0,100,0.00,,-RA,0.55,VWS V14.01,2013-01-17 16:28:00,
2013-01-17 11:30:00,49.4,49.4,29.97,NE,49,0.0,0.0,100,0.00,,,0.55,VWS V14.01,2013-01-17 16:30:00,
2013-01-17 11:33:00,49.4,49.4,29.97,NNE,14,0.0,0.0,100,0.00,,-RA,0.55,VWS V14.01,2013-01-17 16:33:00,
2013-01-17 11:35:00,49.4,49.4,29.97,NNE,14,0.0,0.0,100,0.00,,,0.55,VWS V14.01,2013-01-17 16:35:00,
2013-01-17 11:38:00,49.4,49.4,29.97,NNE,14,0.0,0.0,100,0.00,,-RA,0.55,VWS V14.01,2013-01-17 16:38:00,
2013-01-17 11:40:00,49.4,49.4,29.97,NNE,14,0.0,0.0,100,0.00,,,0.55,VWS V14.01,2013-01-17 16:40:00,
2013-01-17 11:43:00,49.5,49.5,29.97,NNE,14,0.0,0.0,100,0.00,,-RA,0.55,VWS V14.01,2013-01-17 16:43:00,
2013-01-17 11:45:00,49.5,49.5,29.97,NNE,13,0.0,0.0,100,0.00,,,0.55,VWS V14.01,2013-01-17 16:45:00,
2013-01-17 11:49:00,49.5,49.5,29.97,North,5,0.0,0.0,100,0.00,,-RA,0.55,VWS V14.01,2013-01-17 16:49:00,
2013-01-17 11:50:00,49.5,49.5,29.97,North,5,0.0,0.0,100,0.00,,,0.55,VWS V14.01,2013-01-17 16:50:00,
2013-01-17 11:54:00,49.9,49.9,29.97,North,6,0.0,0.0,100,0.00,,-RA,0.55,VWS V14.01,2013-01-17 16:54:00,
2013-01-17 11:55:00,49.9,49.9,29.97,North,6,0.0,0.0,100,0.00,,,0.55,VWS V14.01,2013-01-17 16:55:00,
2013-01-17 11:59:00,49.7,49.7,29.97,North,7,0.0,7.0,100,0.00,,-RA,0.55,VWS V14.01,2013-01-17 16:59:00,
2013-01-17 12:00:00,49.7,49.7,29.97,North,8,0.0,7.0,100,0.00,,,0.55,VWS V14.01,2013-01-17 17:00:00,
2013-01-17 12:04:00,49.7,49.7,29.97,North,8,0.0,0.0,100,0.00,,-RA,0.55,VWS V14.01,2013-01-17 17:04:00,
2013-01-17 12:05:00,49.5,49.5,29.97,North,8,0.0,0.0,100,0.00,,,0.55,VWS V14.01,2013-01-17 17:05:00,
2013-01-17 12:09:00,49.7,49.7,29.97,NNE,23,0.0,0.0,100,0.00,,-RA,0.55,VWS V14.01,2013-01-17 17:09:00,
2013-01-17 12:10:00,49.7,49.7,29.97,NNE,23,0.0,0.0,100,0.00,,,0.55,VWS V14.01,2013-01-17 17:10:00,
2013-01-17 12:14:00,49.7,49.7,29.97,NNE,16,6.7,7.0,100,0.00,,-RA,0.55,VWS V14.01,2013-01-17 17:14:00,
2013-01-17 12:15:00,49.7,49.7,29.97,North,353,0.0,7.0,100,0.00,,,0.55,VWS V14.01,2013-01-17 17:15:00,
2013-01-17 12:19:00,49.7,49.7,29.97,North,0,0.0,0.0,100,0.00,,-RA,0.55,VWS V14.01,2013-01-17 17:19:00,
2013-01-17 12:20:00,49.7,49.7,29.97,North,0,0.0,0.0,100,0.00,,,0.55,VWS V14.01,2013-01-17 17:20:00,
2013-01-17 12:24:00,49.7,49.7,29.97,North,0,0.0,0.0,100,0.00,,-RA,0.55,VWS V14.01,2013-01-17 17:24:00,
2013-01-17 12:25:00,49.7,49.7,29.97,North,0,0.0,0.0,100,0.00,,,0.55,VWS V14.01,2013-01-17 17:25:00,
2013-01-17 12:29:00,49.7,49.7,29.97,ENE,58,0.0,0.0,100,0.00,,-RA,0.55,VWS V14.01,2013-01-17 17:29:00,
2013-01-17 12:30:00,49.7,49.7,29.97,ENE,58,0.0,0.0,100,0.00,,,0.55,VWS V14.01,2013-01-17 17:30:00,
2013-01-17 12:34:00,49.7,49.7,29.97,NNE,17,0.0,9.9,100,0.00,,-RA,0.55,VWS V14.01,2013-01-17 17:34:00,
2013-01-17 12:35:00,49.7,49.7,29.94,NNE,17,0.0,9.9,100,0.00,,,0.55,VWS V14.01,2013-01-17 17:35:00,
2013-01-17 12:39:00,49.7,49.7,29.94,SE,130,0.0,0.0,100,0.00,,-RA,0.55,VWS V14.01,2013-01-17 17:39:00,
2013-01-17 12:40:00,49.7,49.7,29.94,SE,124,0.0,0.0,100,0.00,,,0.55,VWS V14.01,2013-01-17 17:40:00,
2013-01-17 12:44:00,49.7,49.7,29.94,NNE,30,0.0,0.0,100,0.00,,-RA,0.55,VWS V14.01,2013-01-17 17:44:00,
2013-01-17 12:45:00,49.7,49.7,29.94,NNE,30,0.0,0.0,100,0.00,,,0.55,VWS V14.01,2013-01-17 17:45:00,
2013-01-17 12:49:00,49.5,49.5,29.94,North,357,0.0,0.0,100,0.00,,-RA,0.55,VWS V14.01,2013-01-17 17:49:00,
2013-01-17 12:50:00,49.5,49.5,29.94,North,357,0.0,0.0,100,0.00,,,0.55,VWS V14.01,2013-01-17 17:50:00,
2013-01-17 12:54:00,49.5,49.5,29.94,East,90,0.0,0.0,100,0.00,,-RA,0.55,VWS V14.01,2013-01-17 17:54:00,
2013-01-17 12:55:00,49.5,49.5,29.94,East,90,0.0,0.0,100,0.00,,,0.55,VWS V14.01,2013-01-17 17:55:00,
2013-01-17 12:59:00,49.5,49.5,29.94,NE,54,0.0,0.0,100,0.00,,-RA,0.55,VWS V14.01,2013-01-17 17:59:00,
2013-01-17 13:00:00,49.5,49.5,29.94,NE,40,0.0,11.3,100,0.00,,,0.55,VWS V14.01,2013-01-17 18:00:00,
2013-01-17 13:05:00,49.4,49.4,29.94,NE,40,0.0,0.0,100,0.00,,,0.55,VWS V14.01,2013-01-17 18:05:00,
2013-01-17 13:10:00,49.4,49.4,29.94,NE,40,0.0,0.0,100,0.00,,,0.55,VWS V14.01,2013-01-17 18:10:00,
2013-01-17 13:15:00,49.2,49.2,29.94,NE,35,0.0,0.0,100,0.00,,,0.55,VWS V14.01,2013-01-17 18:15:00,
2013-01-17 13:20:00,49.2,49.2,29.94,NNE,29,0.0,0.0,100,0.04,,,0.59,VWS V14.01,2013-01-17 18:20:00,
2013-01-17 13:25:00,49.2,49.2,29.91,NNE,17,0.0,0.0,100,0.04,,,0.59,VWS V14.01,2013-01-17 18:25:00,
2013-01-17 13:30:00,49.2,49.2,29.91,North,357,0.0,0.0,100,0.04,,,0.59,VWS V14.01,2013-01-17 18:30:00,
2013-01-17 13:35:00,49.2,49.2,29.91,NE,53,0.0,0.0,100,0.04,,,0.59,VWS V14.01,2013-01-17 18:35:00,
2013-01-17 13:40:00,49.2,49.2,29.91,NE,35,0.0,0.0,100,0.04,,,0.59,VWS V14.01,2013-01-17 18:40:00,
2013-01-17 13:45:00,49.2,49.2,29.91,NNE,15,0.0,0.0,100,0.04,,,0.59,VWS V14.01,2013-01-17 18:45:00,
2013-01-17 13:50:00,49.2,49.2,29.91,ENE,57,0.0,0.0,100,0.04,,,0.59,VWS V14.01,2013-01-17 18:50:00,
2013-01-17 13:55:00,49.0,49.0,29.91,NE,51,0.0,0.0,100,0.04,,,0.59,VWS V14.01,2013-01-17 18:55:00,
2013-01-17 14:00:00,48.8,48.8,29.91,NNE,26,0.0,0.0,100,0.04,,,0.59,VWS V14.01,2013-01-17 19:00:00,
2013-01-17 14:05:00,48.8,48.8,29.91,NE,49,0.0,0.0,100,0.04,,,0.59,VWS V14.01,2013-01-17 19:05:00,
2013-01-17 14:10:00,48.8,48.8,29.91,NNE,19,0.0,0.0,100,0.04,,,0.59,VWS V14.01,2013-01-17 19:10:00,
2013-01-17 14:15:00,48.6,48.6,29.88,NNE,23,0.0,0.0,100,0.04,,,0.59,VWS V14.01,2013-01-17 19:15:00,
2013-01-17 14:20:00,48.6,48.6,29.88,ENE,69,0.0,0.0,100,0.00,,,0.59,VWS V14.01,2013-01-17 19:20:00,
2013-01-17 14:25:00,48.6,48.6,29.88,NNE,12,6.7,7.0,100,0.00,,,0.59,VWS V14.01,2013-01-17 19:25:00,
2013-01-17 14:30:00,48.8,48.8,29.88,NNE,32,0.0,0.0,100,0.00,,,0.59,VWS V14.01,2013-01-17 19:30:00,
2013-01-17 14:35:00,48.8,48.8,29.88,NE,34,0.0,0.0,100,0.00,,,0.59,VWS V14.01,2013-01-17 19:35:00,
2013-01-17 14:40:00,48.8,48.8,29.88,East,91,0.0,0.0,100,0.00,,,0.59,VWS V14.01,2013-01-17 19:40:00,
2013-01-17 14:45:00,48.5,48.5,29.88,North,2,10.7,11.3,100,0.00,,,0.59,VWS V14.01,2013-01-17 19:45:00,
2013-01-17 14:46:00,48.5,48.5,29.88,North,2,0.0,11.3,100,0.00,,,0.59,VWS V14.01,2013-01-17 19:46:00,
2013-01-17 14:50:00,48.5,48.5,29.88,North,2,0.0,11.3,100,0.00,,,0.59,VWS V14.01,2013-01-17 19:50:00,
2013-01-17 14:51:00,48.5,48.5,29.88,North,2,0.0,0.0,100,0.00,,,0.59,VWS V14.01,2013-01-17 19:51:00,
2013-01-17 14:55:00,48.5,48.5,29.88,NW,308,0.0,8.5,100,0.00,,,0.59,VWS V14.01,2013-01-17 19:55:00,
2013-01-17 14:56:00,48.5,48.5,29.88,ENE,64,0.0,0.0,100,0.00,,,0.59,VWS V14.01,2013-01-17 19:56:00,
2013-01-17 15:00:00,48.5,48.5,29.88,NNE,20,0.0,9.9,100,0.00,,,0.59,VWS V14.01,2013-01-17 20:00:00,
2013-01-17 15:01:00,48.5,48.5,29.88,NNE,20,0.0,0.0,100,0.00,,,0.59,VWS V14.01,2013-01-17 20:01:00,
2013-01-17 15:05:00,48.5,48.5,29.88,NNE,23,0.0,0.0,100,0.00,,,0.59,VWS V14.01,2013-01-17 20:05:00,
2013-01-17 15:06:00,48.5,48.5,29.88,NNE,23,0.0,0.0,100,0.00,,,0.59,VWS V14.01,2013-01-17 20:06:00,
2013-01-17 15:10:00,48.5,48.5,29.88,NNE,21,0.0,0.0,100,0.00,,,0.59,VWS V14.01,2013-01-17 20:10:00,
2013-01-17 15:11:00,48.5,48.5,29.88,NNE,21,0.0,0.0,100,0.00,,,0.59,VWS V14.01,2013-01-17 20:11:00,
2013-01-17 15:15:00,48.5,48.5,29.88,NNE,24,0.0,0.0,100,0.00,,,0.59,VWS V14.01,2013-01-17 20:15:00,
2013-01-17 15:16:00,48.5,48.5,29.88,NNE,24,0.0,0.0,100,0.00,,,0.59,VWS V14.01,2013-01-17 20:16:00,
2013-01-17 15:20:00,48.5,48.5,29.88,NNE,15,0.0,12.7,100,0.00,,,0.59,VWS V14.01,2013-01-17 20:20:00,
2013-01-17 15:21:00,48.5,48.5,29.88,NNE,14,6.7,7.0,100,0.00,,,0.59,VWS V14.01,2013-01-17 20:21:00,
2013-01-17 15:25:00,48.5,48.5,29.88,NNE,29,0.0,7.0,100,0.00,,,0.59,VWS V14.01,2013-01-17 20:25:00,
2013-01-17 15:26:00,48.5,48.5,29.88,NNE,29,0.0,0.0,100,0.00,,,0.59,VWS V14.01,2013-01-17 20:26:00,
2013-01-17 15:30:00,48.5,48.5,29.88,North,4,0.0,7.0,100,0.00,,,0.59,VWS V14.01,2013-01-17 20:30:00,
2013-01-17 15:31:00,48.5,48.5,29.88,NNE,15,0.0,0.0,100,0.00,,,0.59,VWS V14.01,2013-01-17 20:31:00,
2013-01-17 15:35:00,48.5,48.5,29.88,North,353,0.0,0.0,100,0.00,,,0.59,VWS V14.01,2013-01-17 20:35:00,
2013-01-17 15:36:00,48.5,48.5,29.88,North,353,0.0,0.0,100,0.00,,,0.59,VWS V14.01,2013-01-17 20:36:00,
2013-01-17 15:40:00,48.5,48.5,29.88,North,11,0.0,7.0,100,0.00,,,0.59,VWS V14.01,2013-01-17 20:40:00,
2013-01-17 15:41:00,48.5,48.5,29.88,NNW,346,6.7,7.0,100,0.00,,,0.59,VWS V14.01,2013-01-17 20:41:00,
2013-01-17 15:45:00,48.5,48.5,29.88,NE,42,0.0,7.0,100,0.00,,,0.59,VWS V14.01,2013-01-17 20:45:00,
2013-01-17 15:46:00,48.5,48.5,29.88,NE,46,0.0,0.0,100,0.00,,,0.59,VWS V14.01,2013-01-17 20:46:00,
2013-01-17 15:50:00,48.5,48.5,29.88,North,357,0.0,0.0,100,0.00,,,0.59,VWS V14.01,2013-01-17 20:50:00,
2013-01-17 15:51:00,48.5,48.5,29.88,NE,45,0.0,0.0,100,0.00,,,0.59,VWS V14.01,2013-01-17 20:51:00,
2013-01-17 15:55:00,48.3,48.3,29.88,NNE,31,0.0,0.0,100,0.00,,,0.59,VWS V14.01,2013-01-17 20:55:00,
2013-01-17 15:56:00,48.3,48.3,29.88,North,0,0.0,0.0,100,0.00,,,0.59,VWS V14.01,2013-01-17 20:56:00,
2013-01-17 16:00:00,48.3,48.3,29.88,NE,47,0.0,7.0,100,0.00,,,0.59,VWS V14.01,2013-01-17 21:00:00,
2013-01-17 16:01:00,48.3,48.3,29.88,NE,47,0.0,0.0,100,0.00,,,0.59,VWS V14.01,2013-01-17 21:01:00,
2013-01-17 16:05:00,48.3,48.3,29.88,ENE,65,0.0,0.0,100,0.00,,,0.59,VWS V14.01,2013-01-17 21:05:00,
2013-01-17 16:06:00,48.3,48.3,29.88,NNE,20,0.0,0.0,100,0.00,,,0.59,VWS V14.01,2013-01-17 21:06:00,
2013-01-17 16:10:00,48.3,48.3,29.88,NE,56,0.0,16.9,100,0.00,,,0.59,VWS V14.01,2013-01-17 21:10:00,
2013-01-17 16:12:00,48.1,48.1,29.88,NE,44,0.0,0.0,100,0.00,,,0.59,VWS V14.01,2013-01-17 21:12:00,
2013-01-17 16:15:00,48.1,48.1,29.88,East,87,0.0,0.0,100,0.00,,,0.59,VWS V14.01,2013-01-17 21:15:00,
2013-01-17 16:17:00,48.1,48.1,29.88,NNE,18,0.0,0.0,100,0.00,,,0.59,VWS V14.01,2013-01-17 21:17:00,
2013-01-17 16:20:00,47.9,47.9,29.88,East,88,0.0,7.0,100,0.00,,,0.59,VWS V14.01,2013-01-17 21:20:00,
2013-01-17 16:22:00,47.7,47.7,29.88,North,350,0.0,0.0,100,0.00,,,0.59,VWS V14.01,2013-01-17 21:22:00,
2013-01-17 16:25:00,47.7,47.7,29.88,NE,54,0.0,0.0,100,0.00,,,0.59,VWS V14.01,2013-01-17 21:25:00,
2013-01-17 16:27:00,47.7,47.7,29.88,North,353,0.0,0.0,100,0.00,,,0.59,VWS V14.01,2013-01-17 21:27:00,
2013-01-17 16:30:00,47.6,47.6,29.88,NNE,14,0.0,9.9,100,0.00,,,0.59,VWS V14.01,2013-01-17 21:30:00,
2013-01-17 16:32:00,47.4,47.4,29.88,NNE,22,0.0,0.0,100,0.00,,,0.59,VWS V14.01,2013-01-17 21:32:00,
2013-01-17 16:35:00,47.4,47.4,29.88,North,11,8.1,8.5,100,0.00,,,0.59,VWS V14.01,2013-01-17 21:35:00,
2013-01-17 16:37:00,47.2,47.2,29.88,North,0,0.0,8.5,100,0.00,,,0.59,VWS V14.01,2013-01-17 21:37:00,
2013-01-17 16:40:00,47.0,47.0,29.88,North,0,0.0,8.5,100,0.00,,,0.59,VWS V14.01,2013-01-17 21:40:00,
2013-01-17 16:42:00,47.0,47.0,29.88,West,276,0.0,7.0,100,0.00,,,0.59,VWS V14.01,2013-01-17 21:42:00,
2013-01-17 16:45:00,46.7,46.7,29.88,NNE,33,0.0,7.0,100,0.00,,,0.59,VWS V14.01,2013-01-17 21:45:00,
2013-01-17 16:47:00,46.7,46.7,29.88,NNE,33,0.0,0.0,100,0.04,,,0.63,VWS V14.01,2013-01-17 21:47:00,
2013-01-17 16:50:00,46.7,46.7,29.88,ENE,72,0.0,0.0,100,0.04,,,0.63,VWS V14.01,2013-01-17 21:50:00,
2013-01-17 16:52:00,46.7,46.7,29.88,NE,46,0.0,0.0,100,0.04,,,0.63,VWS V14.01,2013-01-17 21:52:00,
2013-01-17 16:55:00,46.5,46.5,29.88,NNE,26,0.0,0.0,100,0.04,,,0.63,VWS V14.01,2013-01-17 21:55:00,
2013-01-17 16:57:00,46.3,46.3,29.88,ENE,57,0.0,0.0,100,0.04,,,0.63,VWS V14.01,2013-01-17 21:57:00,
2013-01-17 17:00:00,46.3,46.3,29.88,NE,56,0.0,0.0,100,0.04,,,0.63,VWS V14.01,2013-01-17 22:00:00,
2013-01-17 17:02:00,46.1,46.1,29.88,NE,56,0.0,0.0,100,0.04,,-RA,0.63,VWS V14.01,2013-01-17 22:02:00,
2013-01-17 17:05:00,46.1,46.1,29.88,NNE,26,0.0,0.0,100,0.04,,,0.63,VWS V14.01,2013-01-17 22:05:00,
2013-01-17 17:07:00,45.9,45.9,29.88,NNE,26,8.1,8.5,100,0.04,,-RA,0.63,VWS V14.01,2013-01-17 22:07:00,
2013-01-17 17:10:00,45.9,45.9,29.88,ESE,102,0.0,8.5,100,0.04,,,0.63,VWS V14.01,2013-01-17 22:10:00,
2013-01-17 17:12:00,45.9,45.9,29.88,NNE,25,0.0,0.0,100,0.04,,-RA,0.63,VWS V14.01,2013-01-17 22:12:00,
2013-01-17 17:15:00,45.8,45.8,29.88,NE,54,0.0,0.0,100,0.04,,,0.63,VWS V14.01,2013-01-17 22:15:00,
2013-01-17 17:17:00,45.8,45.8,29.88,NE,54,0.0,0.0,100,0.04,,-RA,0.63,VWS V14.01,2013-01-17 22:17:00,
2013-01-17 17:20:00,45.8,45.8,29.88,NE,39,0.0,8.5,100,0.04,,,0.63,VWS V14.01,2013-01-17 22:20:00,
2013-01-17 17:22:00,45.6,45.6,29.88,ENE,58,0.0,11.3,100,0.04,,-RA,0.63,VWS V14.01,2013-01-17 22:22:00,
2013-01-17 17:25:00,45.6,45.6,29.88,NNE,14,0.0,11.3,100,0.04,,,0.63,VWS V14.01,2013-01-17 22:25:00,
2013-01-17 17:27:00,45.6,45.6,29.88,East,83,0.0,0.0,100,0.04,,-RA,0.63,VWS V14.01,2013-01-17 22:27:00,
2013-01-17 17:30:00,45.4,45.4,29.88,NNE,18,0.0,9.9,100,0.04,,,0.63,VWS V14.01,2013-01-17 22:30:00,
2013-01-17 17:32:00,45.2,45.2,29.88,NNE,23,6.7,7.0,100,0.04,,-RA,0.63,VWS V14.01,2013-01-17 22:32:00,
2013-01-17 17:35:00,45.2,45.2,29.88,NNE,25,0.0,9.9,100,0.04,,,0.63,VWS V14.01,2013-01-17 22:35:00,
2013-01-17 17:37:00,45.2,45.2,29.88,ENE,57,0.0,0.0,100,0.04,,-RA,0.63,VWS V14.01,2013-01-17 22:37:00,
2013-01-17 17:40:00,45.2,45.2,29.88,East,91,0.0,0.0,100,0.04,,,0.63,VWS V14.01,2013-01-17 22:40:00,
2013-01-17 17:43:00,45.2,45.2,29.91,East,90,0.0,0.0,100,0.08,,-RA,0.67,VWS V14.01,2013-01-17 22:43:00,
2013-01-17 17:45:00,45.2,45.2,29.91,North,353,0.0,7.0,100,0.08,,,0.67,VWS V14.01,2013-01-17 22:45:00,
2013-01-17 17:48:00,45.4,45.4,29.91,North,4,0.0,0.0,100,0.08,,-RA,0.67,VWS V14.01,2013-01-17 22:48:00,
2013-01-17 17:50:00,45.2,45.2,29.91,NNE,15,0.0,12.7,100,0.08,,,0.67,VWS V14.01,2013-01-17 22:50:00,
2013-01-17 17:53:00,45.2,45.2,29.91,NE,45,0.0,0.0,100,0.04,,-RA,0.67,VWS V14.01,2013-01-17 22:53:00,
2013-01-17 17:55:00,45.2,45.2,29.91,NNE,33,0.0,0.0,100,0.16,,,0.79,VWS V14.01,2013-01-17 22:55:00,
2013-01-17 17:58:00,45.2,45.2,29.91,NNE,33,0.0,0.0,100,0.16,,-RA,0.79,VWS V14.01,2013-01-17 22:58:00,
2013-01-17 18:00:00,45.0,45.0,29.91,North,8,0.0,9.9,100,0.16,,,0.79,VWS V14.01,2013-01-17 23:00:00,
2013-01-17 18:03:00,45.0,45.0,29.91,North,2,0.0,0.0,100,0.16,,-RA,0.79,VWS V14.01,2013-01-17 23:03:00,
2013-01-17 18:05:00,44.9,44.9,29.91,NNE,13,10.7,11.3,100,0.16,,,0.79,VWS V14.01,2013-01-17 23:05:00,
2013-01-17 18:08:00,44.7,44.7,29.91,NE,50,0.0,11.3,100,0.16,,-RA,0.79,VWS V14.01,2013-01-17 23:08:00,
2013-01-17 18:10:00,44.5,44.5,29.91,NNE,23,0.0,11.3,100,0.24,,,0.87,VWS V14.01,2013-01-17 23:10:00,
2013-01-17 18:13:00,44.3,44.3,29.91,NNE,20,9.4,9.9,100,0.24,,-RA,0.87,VWS V14.01,2013-01-17 23:13:00,
2013-01-17 18:15:00,44.1,44.1,29.91,NNE,19,0.0,9.9,100,0.24,,,0.87,VWS V14.01,2013-01-17 23:15:00,
2013-01-17 18:18:00,44.0,44.0,29.91,East,87,0.0,7.0,100,0.24,,RA,0.87,VWS V14.01,2013-01-17 23:18:00,
2013-01-17 18:20:00,43.8,43.8,29.91,East,87,0.0,7.0,100,0.24,,,0.87,VWS V14.01,2013-01-17 23:20:00,
2013-01-17 18:24:00,43.6,43.6,29.91,ENE,59,0.0,11.3,100,0.28,,RA,0.91,VWS V14.01,2013-01-17 23:24:00,
2013-01-17 18:25:00,43.6,43.6,29.91,NE,38,0.0,11.3,100,0.28,,,0.91,VWS V14.01,2013-01-17 23:25:00,
2013-01-17 18:29:00,43.6,43.6,29.91,NE,43,8.1,8.5,100,0.28,,RA,0.91,VWS V14.01,2013-01-17 23:29:00,
2013-01-17 18:30:00,43.4,43.4,29.91,NE,43,8.1,8.5,100,0.28,,,0.91,VWS V14.01,2013-01-17 23:30:00,
2013-01-17 18:34:00,43.2,43.2,29.91,West,269,0.0,19.7,100,0.28,,RA,0.91,VWS V14.01,2013-01-17 23:34:00,
2013-01-17 18:35:00,43.2,43.2,29.91,WSW,243,0.0,19.7,100,0.28,,,0.91,VWS V14.01,2013-01-17 23:35:00,
2013-01-17 18:39:00,42.9,42.9,29.91,North,8,0.0,8.5,100,0.28,,RA,0.91,VWS V14.01,2013-01-17 23:39:00,
2013-01-17 18:40:00,42.9,42.9,29.91,NNE,33,0.0,8.5,100,0.28,,,0.91,VWS V14.01,2013-01-17 23:40:00,
2013-01-17 18:44:00,42.5,42.5,29.91,NNE,17,0.0,22.5,100,0.28,,RA,0.91,VWS V14.01,2013-01-17 23:44:00,
2013-01-17 18:45:00,42.5,42.5,29.91,NNE,26,0.0,22.5,100,0.28,,,0.91,VWS V14.01,2013-01-17 23:45:00,
2013-01-17 18:49:00,42.3,42.3,29.91,NNW,346,0.0,0.0,100,0.24,,RA,0.91,VWS V14.01,2013-01-17 23:49:00,
2013-01-17 18:50:00,42.3,42.3,29.91,WNW,284,6.7,7.0,100,0.24,,,0.91,VWS V14.01,2013-01-17 23:50:00,
2013-01-17 18:54:00,42.3,42.3,29.91,NNE,31,0.0,7.0,100,0.24,,RA,0.91,VWS V14.01,2013-01-17 23:54:00,
2013-01-17 18:55:00,42.2,42.2,29.91,NNE,24,9.4,9.9,100,0.24,,,0.91,VWS V14.01,2013-01-17 23:55:00,
2013-01-17 18:59:00,42.0,42.0,29.91,NNE,33,10.7,11.3,100,0.12,,RA,0.91,VWS V14.01,2013-01-17 23:59:00,
2013-01-17 19:00:00,42.0,42.0,29.91,North,3,0.0,11.3,100,0.12,,,0.91,VWS V14.01,2013-01-18 00:00:00,
2013-01-17 19:04:00,41.8,41.8,29.91,NNE,32,0.0,8.5,100,0.12,,-RA,0.91,VWS V14.01,2013-01-18 00:04:00,
2013-01-17 19:05:00,41.8,41.8,29.94,WNW,303,0.0,8.5,100,0.12,,,0.91,VWS V14.01,2013-01-18 00:05:00,
2013-01-17 19:09:00,41.4,41.2,29.94,North,353,0.0,0.0,99,0.12,,-RA,0.91,VWS V14.01,2013-01-18 00:09:00,
2013-01-17 19:10:00,41.4,41.2,29.94,North,353,0.0,0.0,99,0.12,,,0.91,VWS V14.01,2013-01-18 00:10:00,
2013-01-17 19:14:00,41.3,41.0,29.94,North,7,10.7,16.9,99,0.08,,-RA,0.94,VWS V14.01,2013-01-18 00:14:00,
2013-01-17 19:15:00,41.3,41.0,29.94,North,7,10.7,16.9,99,0.08,,,0.94,VWS V14.01,2013-01-18 00:15:00,
2013-01-17 19:19:00,41.1,41.1,29.94,North,7,10.7,11.3,100,0.08,,-RA,0.94,VWS V14.01,2013-01-18 00:19:00,
2013-01-17 19:20:00,41.1,41.1,29.94,North,7,10.7,11.3,100,0.08,,,0.94,VWS V14.01,2013-01-18 00:20:00,
2013-01-17 19:24:00,40.9,40.9,29.94,North,350,6.7,11.3,100,0.08,,-RA,0.94,VWS V14.01,2013-01-18 00:24:00,
2013-01-17 19:25:00,40.9,40.9,29.94,North,350,6.7,11.3,100,0.08,,,0.94,VWS V14.01,2013-01-18 00:25:00,
2013-01-17 19:29:00,40.5,40.5,29.91,SSE,163,0.0,12.7,100,0.04,,-RA,0.94,VWS V14.01,2013-01-18 00:29:00,
2013-01-17 19:30:00,40.5,40.5,29.91,SSE,163,0.0,12.7,100,0.04,,,0.94,VWS V14.01,2013-01-18 00:30:00,
2013-01-17 19:35:00,40.4,40.4,29.91,NNE,20,8.1,8.5,100,0.04,,-RA,0.94,VWS V14.01,2013-01-18 00:35:00,
2013-01-17 19:40:00,40.2,40.2,29.91,North,353,0.0,15.5,100,0.04,,-RA,0.94,VWS V14.01,2013-01-18 00:40:00,
2013-01-17 19:45:00,40.0,40.0,29.91,ENE,65,6.7,7.0,100,0.04,,-RA,0.94,VWS V14.01,2013-01-18 00:45:00,
2013-01-17 19:50:00,39.8,39.8,29.91,NE,51,0.0,0.0,100,0.08,,-RA,0.98,VWS V14.01,2013-01-18 00:50:00,
2013-01-17 19:55:00,39.6,39.6,29.91,NNE,29,0.0,0.0,100,0.08,,-RA,0.98,VWS V14.01,2013-01-18 00:55:00,
2013-01-17 20:00:00,39.5,39.5,29.94,NE,34,0.0,0.0,100,0.08,,-RA,0.98,VWS V14.01,2013-01-18 01:00:00,
2013-01-17 20:05:00,39.3,39.3,29.94,South,170,0.0,0.0,100,0.12,,-RA,1.02,VWS V14.01,2013-01-18 01:05:00,
2013-01-17 20:10:00,38.9,38.9,29.94,NNW,340,0.0,0.0,100,0.12,,-RA,1.02,VWS V14.01,2013-01-18 01:10:00,
2013-01-17 20:15:00,38.7,38.7,29.97,East,99,0.0,0.0,100,0.16,,RA,1.10,VWS V14.01,2013-01-18 01:15:00,
2013-01-17 20:20:00,38.2,38.2,29.97,South,178,0.0,0.0,100,0.16,,RA,1.10,VWS V14.01,2013-01-18 01:20:00,
2013-01-17 20:25:00,37.8,37.8,29.97,North,357,0.0,0.0,100,0.20,,RA,1.14,VWS V14.01,2013-01-18 01:25:00,
2013-01-17 20:30:00,37.1,36.3,29.97,NE,35,0.0,9.9,97,0.24,,RA,1.18,VWS V14.01,2013-01-18 01:30:00,
2013-01-17 20:35:00,36.8,35.7,30.00,North,350,0.0,0.0,96,0.24,,RA,1.18,VWS V14.01,2013-01-18 01:35:00,
2013-01-17 20:40:00,36.4,35.9,30.00,NNE,25,0.0,9.9,98,0.24,,RA,1.18,VWS V14.01,2013-01-18 01:40:00,
2013-01-17 20:45:00,35.9,35.6,30.00,ESE,103,0.0,0.0,99,0.24,,,1.18,VWS V14.01,2013-01-18 01:45:00,
2013-01-17 20:50:00,35.5,35.2,30.00,NNE,31,0.0,0.0,99,0.24,,,1.18,VWS V14.01,2013-01-18 01:50:00,
2013-01-17 20:51:00,35.3,35.1,30.00,East,82,0.0,0.0,99,0.20,,,1.18,VWS V14.01,2013-01-18 01:51:00,
2013-01-17 20:55:00,35.1,35.1,30.00,ENE,64,0.0,0.0,100,0.24,,,1.22,VWS V14.01,2013-01-18 01:55:00,
2013-01-17 20:56:00,34.8,34.8,30.00,ENE,64,0.0,0.0,100,0.24,,,1.22,VWS V14.01,2013-01-18 01:56:00,
2013-01-17 21:00:00,34.4,34.4,30.00,NE,35,0.0,7.0,100,0.24,,,1.22,VWS V14.01,2013-01-18 02:00:00,
2013-01-17 21:01:00,34.4,34.4,30.00,NNE,20,0.0,0.0,100,0.24,,,1.22,VWS V14.01,2013-01-18 02:01:00,
2013-01-17 21:05:00,34.1,34.1,30.00,NE,41,0.0,0.0,100,0.24,,,1.22,VWS V14.01,2013-01-18 02:05:00,
2013-01-17 21:06:00,34.1,34.1,30.00,NE,40,0.0,0.0,100,0.20,,,1.22,VWS V14.01,2013-01-18 02:06:00,
2013-01-17 21:10:00,33.9,33.9,30.00,ENE,65,0.0,0.0,100,0.20,,,1.22,VWS V14.01,2013-01-18 02:10:00,
2013-01-17 21:11:00,33.5,33.5,30.00,ENE,65,0.0,0.0,100,0.20,,,1.22,VWS V14.01,2013-01-18 02:11:00,
2013-01-17 21:15:00,33.5,33.5,29.97,NNE,24,0.0,0.0,100,0.20,,,1.22,VWS V14.01,2013-01-18 02:15:00,
2013-01-17 21:16:00,33.3,33.3,29.97,NNE,24,0.0,0.0,100,0.20,,,1.22,VWS V14.01,2013-01-18 02:16:00,
2013-01-17 21:20:00,33.2,33.2,29.97,NE,34,0.0,0.0,100,0.20,,,1.22,VWS V14.01,2013-01-18 02:20:00,
2013-01-17 21:21:00,33.2,33.2,29.97,NE,47,0.0,0.0,100,0.12,,,1.22,VWS V14.01,2013-01-18 02:21:00,
2013-01-17 21:25:00,33.0,33.0,29.97,East,100,0.0,0.0,100,0.12,,,1.22,VWS V14.01,2013-01-18 02:25:00,
2013-01-17 21:26:00,33.0,33.0,29.97,East,100,0.0,0.0,100,0.08,,,1.22,VWS V14.01,2013-01-18 02:26:00,
2013-01-17 21:30:00,32.8,32.8,29.97,East,100,0.0,0.0,100,0.08,,,1.22,VWS V14.01,2013-01-18 02:30:00,
2013-01-17 21:31:00,32.8,32.8,29.97,East,100,0.0,0.0,100,0.04,,,1.22,VWS V14.01,2013-01-18 02:31:00,
2013-01-17 21:35:00,33.0,33.0,29.97,East,100,0.0,0.0,100,0.04,,,1.22,VWS V14.01,2013-01-18 02:35:00,
2013-01-17 21:36:00,33.0,33.0,29.97,East,100,0.0,0.0,100,0.04,,,1.22,VWS V14.01,2013-01-18 02:36:00,
2013-01-17 21:40:00,33.0,33.0,30.03,NE,55,0.0,0.0,100,0.04,,,1.22,VWS V14.01,2013-01-18 02:40:00,
2013-01-17 21:41:00,33.0,33.0,30.03,NNE,17,0.0,8.5,100,0.04,,,1.22,VWS V14.01,2013-01-18 02:41:00,
2013-01-17 21:45:00,33.0,33.0,30.03,SE,136,0.0,8.5,100,0.04,,,1.22,VWS V14.01,2013-01-18 02:45:00,
2013-01-17 21:46:00,33.0,33.0,30.03,NE,43,0.0,0.0,100,0.04,,,1.22,VWS V14.01,2013-01-18 02:46:00,
2013-01-17 21:50:00,33.0,33.0,30.03,NE,43,0.0,0.0,100,0.04,,,1.22,VWS V14.01,2013-01-18 02:50:00,
2013-01-17 21:51:00,33.0,33.0,30.03,NE,43,0.0,0.0,100,0.04,,,1.22,VWS V14.01,2013-01-18 02:51:00,
2013-01-17 21:55:00,33.0,33.0,30.00,NE,43,0.0,0.0,100,0.04,,,1.22,VWS V14.01,2013-01-18 02:55:00,
2013-01-17 21:56:00,33.0,33.0,30.00,NE,43,0.0,0.0,100,0.00,,,1.22,VWS V14.01,2013-01-18 02:56:00,
2013-01-17 22:00:00,33.0,33.0,30.00,NE,43,0.0,0.0,100,0.00,,,1.22,VWS V14.01,2013-01-18 03:00:00,
2013-01-17 22:01:00,33.0,33.0,30.00,North,4,0.0,0.0,100,0.00,,,1.22,VWS V14.01,2013-01-18 03:01:00,
2013-01-17 22:05:00,33.0,33.0,30.00,North,4,0.0,0.0,100,0.00,,,1.22,VWS V14.01,2013-01-18 03:05:00,
2013-01-17 22:07:00,33.0,33.0,30.00,NE,45,0.0,0.0,100,0.00,,,1.22,VWS V14.01,2013-01-18 03:07:00,
2013-01-17 22:10:00,33.0,33.0,30.00,NE,45,0.0,0.0,100,0.00,,,1.22,VWS V14.01,2013-01-18 03:10:00,
2013-01-17 22:12:00,33.0,33.0,30.00,North,11,0.0,0.0,100,0.00,,,1.22,VWS V14.01,2013-01-18 03:12:00,
2013-01-17 22:15:00,33.0,33.0,30.00,NNE,29,0.0,0.0,100,0.00,,,1.22,VWS V14.01,2013-01-18 03:15:00,
2013-01-17 22:17:00,33.2,33.2,30.00,NNE,29,0.0,0.0,100,0.00,,,1.22,VWS V14.01,2013-01-18 03:17:00,
2013-01-17 22:20:00,33.3,33.3,30.00,NNE,29,0.0,0.0,100,0.00,,,1.22,VWS V14.01,2013-01-18 03:20:00,
2013-01-17 22:22:00,33.3,33.3,30.00,NNE,29,0.0,0.0,100,0.00,,,1.22,VWS V14.01,2013-01-18 03:22:00,
2013-01-17 22:25:00,33.3,33.3,30.00,NNE,29,0.0,0.0,100,0.00,,,1.22,VWS V14.01,2013-01-18 03:25:00,
2013-01-17 22:27:00,33.5,33.5,30.00,NNE,29,0.0,0.0,100,0.00,,,1.22,VWS V14.01,2013-01-18 03:27:00,
2013-01-17 22:30:00,33.7,33.7,30.00,NE,54,0.0,0.0,100,0.00,,,1.22,VWS V14.01,2013-01-18 03:30:00,
2013-01-17 22:32:00,33.9,33.9,30.00,NE,54,0.0,0.0,100,0.00,,,1.22,VWS V14.01,2013-01-18 03:32:00,
2013-01-17 22:35:00,33.9,33.9,30.00,NE,51,0.0,0.0,100,0.00,,,1.22,VWS V14.01,2013-01-18 03:35:00,
2013-01-17 22:37:00,33.9,33.9,30.00,NE,51,0.0,0.0,100,0.00,,,1.22,VWS V14.01,2013-01-18 03:37:00,
2013-01-17 22:40:00,33.9,33.9,30.03,NE,51,0.0,0.0,100,0.00,,,1.22,VWS V14.01,2013-01-18 03:40:00,
2013-01-17 22:42:00,33.9,33.9,30.03,NE,51,0.0,0.0,100,0.00,,,1.22,VWS V14.01,2013-01-18 03:42:00,
2013-01-17 22:45:00,33.9,33.9,30.03,NE,51,0.0,0.0,100,0.00,,,1.22,VWS V14.01,2013-01-18 03:45:00,
2013-01-17 22:47:00,33.9,33.9,30.03,South,183,0.0,0.0,100,0.00,,,1.22,VWS V14.01,2013-01-18 03:47:00,
2013-01-17 22:50:00,33.7,33.7,30.03,SE,137,0.0,0.0,100,0.00,,,1.22,VWS V14.01,2013-01-18 03:50:00,
2013-01-17 22:52:00,33.5,33.5,30.03,SE,137,0.0,0.0,100,0.00,,,1.22,VWS V14.01,2013-01-18 03:52:00,
2013-01-17 22:55:00,33.5,33.5,30.03,SE,137,0.0,0.0,100,0.00,,,1.22,VWS V14.01,2013-01-18 03:55:00,
2013-01-17 22:57:00,33.5,33.5,30.03,SE,137,0.0,0.0,100,0.00,,,1.22,VWS V14.01,2013-01-18 03:57:00,
2013-01-17 23:00:00,33.5,33.5,30.06,SE,137,0.0,0.0,100,0.00,,,1.22,VWS V14.01,2013-01-18 04:00:00,
2013-01-17 23:02:00,33.5,33.5,30.06,SE,137,0.0,0.0,100,0.00,,,1.22,VWS V14.01,2013-01-18 04:02:00,
2013-01-17 23:05:00,33.5,33.5,30.06,SE,137,0.0,0.0,100,0.00,,,1.22,VWS V14.01,2013-01-18 04:05:00,
2013-01-17 23:07:00,33.5,33.5,30.06,SE,137,0.0,0.0,100,0.00,,,1.22,VWS V14.01,2013-01-18 04:07:00,
2013-01-17 23:10:00,33.5,33.5,30.06,SE,137,0.0,0.0,100,0.00,,,1.22,VWS V14.01,2013-01-18 04:10:00,
2013-01-17 23:12:00,33.5,33.5,30.06,SE,137,0.0,0.0,100,0.00,,,1.22,VWS V14.01,2013-01-18 04:12:00,
2013-01-17 23:15:00,33.5,33.5,30.06,SE,137,0.0,0.0,100,0.00,,,1.22,VWS V14.01,2013-01-18 04:15:00,
2013-01-17 23:17:00,33.5,33.5,30.06,SE,137,0.0,0.0,100,0.00,,,1.22,VWS V14.01,2013-01-18 04:17:00,
2013-01-17 23:20:00,33.5,33.5,30.06,SE,137,0.0,0.0,100,0.00,,,1.22,VWS V14.01,2013-01-18 04:20:00,
2013-01-17 23:22:00,33.3,33.3,30.06,SE,137,0.0,0.0,100,0.00,,,1.22,VWS V14.01,2013-01-18 04:22:00,
2013-01-17 23:25:00,33.3,33.3,30.06,SE,137,0.0,0.0,100,0.00,,,1.22,VWS V14.01,2013-01-18 04:25:00,
2013-01-17 23:27:00,33.3,33.3,30.09,SE,137,0.0,0.0,100,0.00,,,1.22,VWS V14.01,2013-01-18 04:27:00,
2013-01-17 23:30:00,33.3,33.3,30.09,SE,137,0.0,0.0,100,0.00,,,1.22,VWS V14.01,2013-01-18 04:30:00,
2013-01-17 23:33:00,33.2,33.2,30.09,SE,137,0.0,0.0,100,0.00,,BKN011,1.22,VWS V14.01,2013-01-18 04:33:00,
2013-01-17 23:35:00,33.2,33.2,30.09,SE,137,0.0,0.0,100,0.00,,,1.22,VWS V14.01,2013-01-18 04:35:00,
2013-01-17 23:38:00,33.0,33.0,30.09,SE,137,0.0,0.0,100,0.00,,BKN011,1.22,VWS V14.01,2013-01-18 04:38:00,
2013-01-17 23:40:00,33.0,33.0,30.12,SE,137,0.0,0.0,100,0.00,,,1.22,VWS V14.01,2013-01-18 04:40:00,
2013-01-17 23:43:00,33.0,33.0,30.12,SE,137,0.0,0.0,100,0.00,,BKN011,1.22,VWS V14.01,2013-01-18 04:43:00,
2013-01-17 23:45:00,33.0,33.0,30.12,SE,137,0.0,0.0,100,0.00,,,1.22,VWS V14.01,2013-01-18 04:45:00,
2013-01-17 23:48:00,33.0,33.0,30.12,SE,137,0.0,0.0,100,0.00,,BKN011,1.22,VWS V14.01,2013-01-18 04:48:00,
2013-01-17 23:50:00,32.8,32.8,30.12,SE,137,0.0,0.0,100,0.00,,,1.22,VWS V14.01,2013-01-18 04:50:00,
2013-01-17 23:53:00,32.8,32.8,30.12,SE,137,0.0,0.0,100,0.00,,BKN011,1.22,VWS V14.01,2013-01-18 04:53:00,
2013-01-17 23:55:00,32.8,32.8,30.12,SE,137,0.0,0.0,100,0.00,,,1.22,VWS V14.01,2013-01-18 04:55:00,
2013-01-17 23:58:00,32.8,32.8,30.15,SE,137,0.0,0.0,100,0.00,,BKN011,1.22,VWS V14.01,2013-01-18 04:58:00,